Year,Month,Day,Hour,Minute,Value (Times are PST for temperature in C)
2011,04,12,00,00,2.60
2011,04,12,00,01,2.60
2011,04,12,00,02,2.60
2011,04,12,00,03,2.60
2011,04,12,00,04,2.70
2011,04,12,00,05,2.70
2011,04,12,00,06,2.70
2011,04,12,00,07,2.70
2011,04,12,00,08,2.70
2011,04,12,00,09,2.70
2011,04,12,00,10,2.70
2011,04,12,00,11,2.80
2011,04,12,00,12,2.80
2011,04,12,00,13,2.80
2011,04,12,00,14,2.80
2011,04,12,00,15,2.70
2011,04,12,00,16,2.70
2011,04,12,00,17,2.70
2011,04,12,00,18,2.70
2011,04,12,00,19,2.70
2011,04,12,00,20,2.70
2011,04,12,00,21,2.70
2011,04,12,00,22,2.70
2011,04,12,00,23,2.60
2011,04,12,00,24,2.60
2011,04,12,00,25,2.60
2011,04,12,00,26,2.60
2011,04,12,00,27,2.60
2011,04,12,00,28,2.60
2011,04,12,00,29,2.60
2011,04,12,00,30,2.50
2011,04,12,00,31,2.50
2011,04,12,00,32,2.50
2011,04,12,00,33,2.40
2011,04,12,00,34,2.40
2011,04,12,00,35,2.40
2011,04,12,00,36,2.40
2011,04,12,00,37,2.40
2011,04,12,00,38,2.40
2011,04,12,00,39,2.40
2011,04,12,00,40,2.30
2011,04,12,00,41,2.30
2011,04,12,00,42,2.30
2011,04,12,00,43,2.30
2011,04,12,00,44,2.30
2011,04,12,00,45,2.30
2011,04,12,00,46,2.30
2011,04,12,00,47,2.30
2011,04,12,00,48,2.30
2011,04,12,00,49,2.30
2011,04,12,00,50,2.30
2011,04,12,00,51,2.30
2011,04,12,00,52,2.30
2011,04,12,00,53,2.30
2011,04,12,00,54,2.30
2011,04,12,00,55,2.30
2011,04,12,00,56,2.30
2011,04,12,00,57,2.30
2011,04,12,00,58,2.20
2011,04,12,00,59,2.20
2011,04,12,01,00,2.20
2011,04,12,01,01,2.20
2011,04,12,01,02,2.20
2011,04,12,01,03,2.20
2011,04,12,01,04,2.20
2011,04,12,01,05,2.20
2011,04,12,01,06,2.30
2011,04,12,01,07,2.30
2011,04,12,01,08,2.30
2011,04,12,01,09,2.30
2011,04,12,01,10,2.30
2011,04,12,01,11,2.30
2011,04,12,01,12,2.30
2011,04,12,01,13,2.20
2011,04,12,01,14,2.20
2011,04,12,01,15,2.20
2011,04,12,01,16,2.20
2011,04,12,01,17,2.20
2011,04,12,01,18,2.30
2011,04,12,01,19,2.30
2011,04,12,01,20,2.30
2011,04,12,01,21,2.20
2011,04,12,01,22,2.20
2011,04,12,01,23,2.20
2011,04,12,01,24,2.20
2011,04,12,01,25,2.20
2011,04,12,01,26,2.20
2011,04,12,01,27,2.20
2011,04,12,01,28,2.20
2011,04,12,01,29,2.20
2011,04,12,01,30,2.20
2011,04,12,01,31,2.20
2011,04,12,01,32,2.20
2011,04,12,01,33,2.20
2011,04,12,01,34,2.20
2011,04,12,01,35,2.20
2011,04,12,01,36,2.20
2011,04,12,01,37,2.20
2011,04,12,01,38,2.20
2011,04,12,01,39,2.20
2011,04,12,01,40,2.20
2011,04,12,01,41,2.20
2011,04,12,01,42,2.20
2011,04,12,01,43,2.20
2011,04,12,01,44,2.20
2011,04,12,01,45,2.20
2011,04,12,01,46,2.20
2011,04,12,01,47,2.20
2011,04,12,01,48,2.20
2011,04,12,01,49,2.10
2011,04,12,01,50,2.10
2011,04,12,01,51,2.10
2011,04,12,01,52,2.10
2011,04,12,01,53,2.10
2011,04,12,01,54,2.10
2011,04,12,01,55,2.10
2011,04,12,01,56,2.00
2011,04,12,01,57,2.00
2011,04,12,01,58,2.00
2011,04,12,01,59,2.00
2011,04,12,02,00,2.00
2011,04,12,02,01,2.00
2011,04,12,02,02,2.00
2011,04,12,02,03,2.00
2011,04,12,02,04,1.90
2011,04,12,02,05,1.90
2011,04,12,02,06,1.90
2011,04,12,02,07,1.90
2011,04,12,02,08,1.90
2011,04,12,02,09,1.90
2011,04,12,02,10,1.90
2011,04,12,02,11,1.90
2011,04,12,02,12,1.90
2011,04,12,02,13,1.90
2011,04,12,02,14,1.90
2011,04,12,02,15,1.90
2011,04,12,02,16,1.90
2011,04,12,02,17,1.90
2011,04,12,02,18,1.90
2011,04,12,02,19,1.90
2011,04,12,02,20,1.90
2011,04,12,02,21,1.90
2011,04,12,02,22,1.80
2011,04,12,02,23,1.80
2011,04,12,02,24,1.80
2011,04,12,02,25,1.80
2011,04,12,02,26,1.80
2011,04,12,02,27,1.90
2011,04,12,02,28,1.90
2011,04,12,02,29,1.90
2011,04,12,02,30,1.90
2011,04,12,02,31,1.90
2011,04,12,02,32,1.90
2011,04,12,02,33,1.90
2011,04,12,02,34,1.90
2011,04,12,02,35,1.90
2011,04,12,02,36,1.90
2011,04,12,02,37,1.90
2011,04,12,02,38,1.90
2011,04,12,02,39,1.90
2011,04,12,02,40,1.90
2011,04,12,02,41,1.90
2011,04,12,02,42,1.90
2011,04,12,02,43,1.80
2011,04,12,02,44,1.80
2011,04,12,02,45,1.80
2011,04,12,02,46,1.80
2011,04,12,02,47,1.90
2011,04,12,02,48,1.90
2011,04,12,02,49,1.90
2011,04,12,02,50,2.00
2011,04,12,02,51,2.00
2011,04,12,02,52,2.00
2011,04,12,02,53,2.10
2011,04,12,02,54,2.10
2011,04,12,02,55,2.10
2011,04,12,02,56,2.10
2011,04,12,02,57,2.00
2011,04,12,02,58,2.00
2011,04,12,02,59,2.00
2011,04,12,03,00,2.00
2011,04,12,03,01,1.90
2011,04,12,03,02,1.90
2011,04,12,03,03,1.90
2011,04,12,03,04,1.90
2011,04,12,03,05,1.80
2011,04,12,03,06,1.80
2011,04,12,03,07,1.80
2011,04,12,03,08,1.80
2011,04,12,03,09,1.80
2011,04,12,03,10,1.70
2011,04,12,03,11,1.70
2011,04,12,03,12,1.70
2011,04,12,03,13,1.70
2011,04,12,03,14,1.70
2011,04,12,03,15,1.70
2011,04,12,03,16,1.70
2011,04,12,03,17,1.70
2011,04,12,03,18,1.70
2011,04,12,03,19,1.60
2011,04,12,03,20,1.60
2011,04,12,03,21,1.60
2011,04,12,03,22,1.60
2011,04,12,03,23,1.60
2011,04,12,03,24,1.70
2011,04,12,03,25,1.70
2011,04,12,03,26,1.70
2011,04,12,03,27,1.70
2011,04,12,03,28,1.70
2011,04,12,03,29,1.70
2011,04,12,03,30,1.70
2011,04,12,03,31,1.70
2011,04,12,03,32,1.70
2011,04,12,03,33,1.80
2011,04,12,03,34,1.80
2011,04,12,03,35,1.90
2011,04,12,03,36,1.90
2011,04,12,03,37,2.00
2011,04,12,03,38,2.00
2011,04,12,03,39,2.10
2011,04,12,03,40,2.10
2011,04,12,03,41,2.20
2011,04,12,03,42,2.20
2011,04,12,03,43,2.20
2011,04,12,03,44,2.20
2011,04,12,03,45,2.20
2011,04,12,03,46,2.20
2011,04,12,03,47,2.20
2011,04,12,03,48,2.20
2011,04,12,03,49,2.20
2011,04,12,03,50,2.20
2011,04,12,03,51,2.20
2011,04,12,03,52,2.20
2011,04,12,03,53,2.20
2011,04,12,03,54,2.20
2011,04,12,03,55,2.20
2011,04,12,03,56,2.20
2011,04,12,03,57,2.20
2011,04,12,03,58,2.20
2011,04,12,03,59,2.20
2011,04,12,04,00,2.20
2011,04,12,04,01,2.20
2011,04,12,04,02,2.20
2011,04,12,04,03,2.20
2011,04,12,04,04,2.20
2011,04,12,04,05,2.20
2011,04,12,04,06,2.20
2011,04,12,04,07,2.20
2011,04,12,04,08,2.20
2011,04,12,04,09,2.20
2011,04,12,04,10,2.20
2011,04,12,04,11,2.20
2011,04,12,04,12,2.20
2011,04,12,04,13,2.20
2011,04,12,04,14,2.20
2011,04,12,04,15,2.20
2011,04,12,04,16,2.20
2011,04,12,04,17,2.20
2011,04,12,04,18,2.20
2011,04,12,04,19,2.20
2011,04,12,04,20,2.20
2011,04,12,04,21,2.20
2011,04,12,04,22,2.30
2011,04,12,04,23,2.30
2011,04,12,04,24,2.30
2011,04,12,04,25,2.30
2011,04,12,04,26,2.30
2011,04,12,04,27,2.40
2011,04,12,04,28,2.40
2011,04,12,04,29,2.40
2011,04,12,04,30,2.40
2011,04,12,04,31,2.40
2011,04,12,04,32,2.40
2011,04,12,04,33,2.40
2011,04,12,04,34,2.40
2011,04,12,04,35,2.40
2011,04,12,04,36,2.40
2011,04,12,04,37,2.40
2011,04,12,04,38,2.40
2011,04,12,04,39,2.40
2011,04,12,04,40,2.40
2011,04,12,04,41,2.40
2011,04,12,04,42,2.40
2011,04,12,04,43,2.40
2011,04,12,04,44,2.40
2011,04,12,04,45,2.40
2011,04,12,04,46,2.40
2011,04,12,04,47,2.40
2011,04,12,04,48,2.40
2011,04,12,04,49,2.40
2011,04,12,04,50,2.40
2011,04,12,04,51,2.40
2011,04,12,04,52,2.40
2011,04,12,04,53,2.40
2011,04,12,04,54,2.40
2011,04,12,04,55,2.40
2011,04,12,04,56,2.40
2011,04,12,04,57,2.40
2011,04,12,04,58,2.40
2011,04,12,04,59,2.40
2011,04,12,05,00,2.40
2011,04,12,05,01,2.40
2011,04,12,05,02,2.40
2011,04,12,05,03,2.40
2011,04,12,05,04,2.50
2011,04,12,05,05,2.50
2011,04,12,05,06,2.50
2011,04,12,05,07,2.50
2011,04,12,05,08,2.60
2011,04,12,05,09,2.60
2011,04,12,05,10,2.60
2011,04,12,05,11,2.60
2011,04,12,05,12,2.60
2011,04,12,05,13,2.60
2011,04,12,05,14,2.50
2011,04,12,05,15,2.50
2011,04,12,05,16,2.50
2011,04,12,05,17,2.50
2011,04,12,05,18,2.50
2011,04,12,05,19,2.50
2011,04,12,05,20,2.40
2011,04,12,05,21,2.40
2011,04,12,05,22,2.40
2011,04,12,05,23,2.40
2011,04,12,05,24,2.40
2011,04,12,05,25,2.40
2011,04,12,05,26,2.40
2011,04,12,05,27,2.40
2011,04,12,05,28,2.40
2011,04,12,05,29,2.40
2011,04,12,05,30,2.40
2011,04,12,05,31,2.40
2011,04,12,05,32,2.50
2011,04,12,05,33,2.50
2011,04,12,05,34,2.50
2011,04,12,05,35,2.60
2011,04,12,05,36,2.60
2011,04,12,05,37,2.60
2011,04,12,05,38,2.70
2011,04,12,05,39,2.70
2011,04,12,05,40,2.70
2011,04,12,05,41,2.70
2011,04,12,05,42,2.70
2011,04,12,05,43,2.70
2011,04,12,05,44,2.80
2011,04,12,05,45,2.80
2011,04,12,05,46,2.80
2011,04,12,05,47,2.80
2011,04,12,05,48,2.80
2011,04,12,05,49,2.90
2011,04,12,05,50,2.90
2011,04,12,05,51,2.90
2011,04,12,05,52,2.90
2011,04,12,05,53,2.90
2011,04,12,05,54,2.90
2011,04,12,05,55,2.90
2011,04,12,05,56,2.90
2011,04,12,05,57,2.90
2011,04,12,05,58,2.90
2011,04,12,05,59,2.90
2011,04,12,06,00,2.90
2011,04,12,06,01,2.90
2011,04,12,06,02,2.90
2011,04,12,06,03,2.90
2011,04,12,06,04,2.90
2011,04,12,06,05,2.90
2011,04,12,06,06,2.90
2011,04,12,06,07,2.90
2011,04,12,06,08,2.90
2011,04,12,06,09,2.90
2011,04,12,06,10,2.90
2011,04,12,06,11,2.90
2011,04,12,06,12,2.90
2011,04,12,06,13,2.90
2011,04,12,06,14,2.90
2011,04,12,06,15,2.90
2011,04,12,06,16,2.90
2011,04,12,06,17,2.90
2011,04,12,06,18,2.90
2011,04,12,06,19,2.90
2011,04,12,06,20,2.90
2011,04,12,06,21,2.90
2011,04,12,06,22,2.90
2011,04,12,06,23,2.90
2011,04,12,06,24,2.90
2011,04,12,06,25,2.90
2011,04,12,06,26,2.90
2011,04,12,06,27,2.90
2011,04,12,06,28,2.90
2011,04,12,06,29,2.90
2011,04,12,06,30,2.90
2011,04,12,06,31,2.90
2011,04,12,06,32,2.90
2011,04,12,06,33,2.90
2011,04,12,06,34,2.90
2011,04,12,06,35,2.90
2011,04,12,06,36,2.90
2011,04,12,06,37,2.90
2011,04,12,06,38,2.90
2011,04,12,06,39,2.90
2011,04,12,06,40,2.90
2011,04,12,06,41,2.90
2011,04,12,06,42,2.90
2011,04,12,06,43,2.90
2011,04,12,06,44,2.90
2011,04,12,06,45,2.90
2011,04,12,06,46,2.90
2011,04,12,06,47,2.90
2011,04,12,06,48,2.90
2011,04,12,06,49,2.90
2011,04,12,06,50,2.90
2011,04,12,06,51,2.90
2011,04,12,06,52,2.90
2011,04,12,06,53,2.90
2011,04,12,06,54,2.90
2011,04,12,06,55,2.90
2011,04,12,06,56,2.90
2011,04,12,06,57,2.90
2011,04,12,06,58,2.90
2011,04,12,06,59,2.90
2011,04,12,07,00,2.90
2011,04,12,07,01,2.90
2011,04,12,07,02,2.80
2011,04,12,07,03,2.80
2011,04,12,07,04,2.80
2011,04,12,07,05,2.80
2011,04,12,07,06,2.80
2011,04,12,07,07,2.80
2011,04,12,07,08,2.80
2011,04,12,07,09,2.80
2011,04,12,07,10,2.80
2011,04,12,07,11,2.80
2011,04,12,07,12,2.80
2011,04,12,07,13,2.80
2011,04,12,07,14,2.80
2011,04,12,07,15,2.80
2011,04,12,07,16,2.80
2011,04,12,07,17,2.70
2011,04,12,07,18,2.70
2011,04,12,07,19,2.70
2011,04,12,07,20,2.70
2011,04,12,07,21,2.70
2011,04,12,07,22,2.70
2011,04,12,07,23,2.70
2011,04,12,07,24,2.70
2011,04,12,07,25,2.70
2011,04,12,07,26,2.70
2011,04,12,07,27,2.80
2011,04,12,07,28,2.80
2011,04,12,07,29,2.80
2011,04,12,07,30,2.80
2011,04,12,07,31,2.80
2011,04,12,07,32,2.80
2011,04,12,07,33,2.80
2011,04,12,07,34,2.80
2011,04,12,07,35,2.80
2011,04,12,07,36,2.80
2011,04,12,07,37,2.80
2011,04,12,07,38,2.80
2011,04,12,07,39,2.80
2011,04,12,07,40,2.80
2011,04,12,07,41,2.80
2011,04,12,07,42,2.80
2011,04,12,07,43,2.90
2011,04,12,07,44,2.90
2011,04,12,07,45,2.90
2011,04,12,07,46,2.90
2011,04,12,07,47,2.90
2011,04,12,07,48,2.90
2011,04,12,07,49,2.90
2011,04,12,07,50,3.00
2011,04,12,07,51,3.00
2011,04,12,07,52,3.00
2011,04,12,07,53,3.00
2011,04,12,07,54,3.00
2011,04,12,07,55,3.10
2011,04,12,07,56,3.10
2011,04,12,07,57,3.10
2011,04,12,07,58,3.10
2011,04,12,07,59,3.10
2011,04,12,08,00,3.20
2011,04,12,08,01,3.20
2011,04,12,08,02,3.20
2011,04,12,08,03,3.20
2011,04,12,08,04,3.20
2011,04,12,08,05,3.30
2011,04,12,08,06,3.30
2011,04,12,08,07,3.30
2011,04,12,08,08,3.30
2011,04,12,08,09,3.30
2011,04,12,08,10,3.30
2011,04,12,08,11,3.30
2011,04,12,08,12,3.40
2011,04,12,08,13,3.40
2011,04,12,08,14,3.40
2011,04,12,08,15,3.40
2011,04,12,08,16,3.50
2011,04,12,08,17,3.50
2011,04,12,08,18,3.50
2011,04,12,08,19,3.60
2011,04,12,08,20,3.60
2011,04,12,08,21,3.60
2011,04,12,08,22,3.60
2011,04,12,08,23,3.70
2011,04,12,08,24,3.70
2011,04,12,08,25,3.70
2011,04,12,08,26,3.70
2011,04,12,08,27,3.70
2011,04,12,08,28,3.70
2011,04,12,08,29,3.70
2011,04,12,08,30,3.80
2011,04,12,08,31,3.80
2011,04,12,08,32,3.80
2011,04,12,08,33,3.80
2011,04,12,08,34,3.80
2011,04,12,08,35,3.80
2011,04,12,08,36,3.80
2011,04,12,08,37,3.90
2011,04,12,08,38,3.90
2011,04,12,08,39,3.90
2011,04,12,08,40,3.90
2011,04,12,08,41,3.90
2011,04,12,08,42,4.00
2011,04,12,08,43,4.00
2011,04,12,08,44,4.00
2011,04,12,08,45,4.00
2011,04,12,08,46,4.00
2011,04,12,08,47,4.00
2011,04,12,08,48,4.00
2011,04,12,08,49,4.00
2011,04,12,08,50,4.00
2011,04,12,08,51,4.10
2011,04,12,08,52,4.10
2011,04,12,08,53,4.10
2011,04,12,08,54,4.20
2011,04,12,08,55,4.20
2011,04,12,08,56,4.20
2011,04,12,08,57,4.20
2011,04,12,08,58,4.20
2011,04,12,08,59,4.20
2011,04,12,09,00,4.30
2011,04,12,09,01,4.30
2011,04,12,09,02,4.30
2011,04,12,09,03,4.30
2011,04,12,09,04,4.30
2011,04,12,09,05,4.30
2011,04,12,09,06,4.30
2011,04,12,09,07,4.40
2011,04,12,09,08,4.40
2011,04,12,09,09,4.40
2011,04,12,09,10,4.40
2011,04,12,09,11,4.40
2011,04,12,09,12,4.50
2011,04,12,09,13,4.50
2011,04,12,09,14,4.50
2011,04,12,09,15,4.50
2011,04,12,09,16,4.50
2011,04,12,09,17,4.60
2011,04,12,09,18,4.60
2011,04,12,09,19,4.60
2011,04,12,09,20,4.60
2011,04,12,09,21,4.60
2011,04,12,09,22,4.70
2011,04,12,09,23,4.70
2011,04,12,09,24,4.70
2011,04,12,09,25,4.70
2011,04,12,09,26,4.70
2011,04,12,09,27,4.80
2011,04,12,09,28,4.80
2011,04,12,09,29,4.80
2011,04,12,09,30,4.80
2011,04,12,09,31,4.80
2011,04,12,09,32,4.80
2011,04,12,09,33,4.80
2011,04,12,09,34,4.80
2011,04,12,09,35,4.80
2011,04,12,09,36,4.90
2011,04,12,09,37,4.90
2011,04,12,09,38,4.90
2011,04,12,09,39,4.90
2011,04,12,09,40,4.80
2011,04,12,09,41,4.80
2011,04,12,09,42,4.90
2011,04,12,09,43,4.90
2011,04,12,09,44,4.90
2011,04,12,09,45,4.90
2011,04,12,09,46,4.90
2011,04,12,09,47,4.90
2011,04,12,09,48,4.90
2011,04,12,09,49,4.90
2011,04,12,09,50,4.90
2011,04,12,09,51,4.90
2011,04,12,09,52,4.90
2011,04,12,09,53,4.90
2011,04,12,09,54,5.00
2011,04,12,09,55,5.00
2011,04,12,09,56,5.00
2011,04,12,09,57,5.10
2011,04,12,09,58,5.10
2011,04,12,09,59,5.10
2011,04,12,10,00,5.10
2011,04,12,10,01,5.10
2011,04,12,10,02,5.10
2011,04,12,10,03,5.10
2011,04,12,10,04,5.10
2011,04,12,10,05,5.10
2011,04,12,10,06,5.10
2011,04,12,10,07,5.10
2011,04,12,10,08,5.10
2011,04,12,10,09,5.10
2011,04,12,10,10,5.10
2011,04,12,10,11,5.10
2011,04,12,10,12,5.10
2011,04,12,10,13,5.10
2011,04,12,10,14,5.20
2011,04,12,10,15,5.20
2011,04,12,10,16,5.30
2011,04,12,10,17,5.30
2011,04,12,10,18,5.30
2011,04,12,10,19,5.30
2011,04,12,10,20,5.30
2011,04,12,10,21,5.30
2011,04,12,10,22,5.30
2011,04,12,10,23,5.30
2011,04,12,10,24,5.30
2011,04,12,10,25,5.30
2011,04,12,10,26,5.30
2011,04,12,10,27,5.30
2011,04,12,10,28,5.20
2011,04,12,10,29,5.20
2011,04,12,10,30,5.20
2011,04,12,10,31,5.20
2011,04,12,10,32,5.10
2011,04,12,10,33,5.10
2011,04,12,10,34,5.10
2011,04,12,10,35,5.10
2011,04,12,10,36,5.10
2011,04,12,10,37,5.10
2011,04,12,10,38,5.10
2011,04,12,10,39,5.10
2011,04,12,10,40,5.10
2011,04,12,10,41,5.10
2011,04,12,10,42,5.10
2011,04,12,10,43,5.10
2011,04,12,10,44,5.20
2011,04,12,10,45,5.20
2011,04,12,10,46,5.20
2011,04,12,10,47,5.20
2011,04,12,10,48,5.30
2011,04,12,10,49,5.30
2011,04,12,10,50,5.30
2011,04,12,10,51,5.30
2011,04,12,10,52,5.30
2011,04,12,10,53,5.30
2011,04,12,10,54,5.30
2011,04,12,10,55,5.30
2011,04,12,10,56,5.30
2011,04,12,10,57,5.30
2011,04,12,10,58,5.30
2011,04,12,10,59,5.30
2011,04,12,11,00,5.30
2011,04,12,11,01,5.30
2011,04,12,11,02,5.30
2011,04,12,11,03,5.30
2011,04,12,11,04,5.30
2011,04,12,11,05,5.40
2011,04,12,11,06,5.40
2011,04,12,11,07,5.40
2011,04,12,11,08,5.50
2011,04,12,11,09,5.50
2011,04,12,11,10,5.60
2011,04,12,11,11,5.60
2011,04,12,11,12,5.60
2011,04,12,11,13,5.70
2011,04,12,11,14,5.70
2011,04,12,11,15,5.70
2011,04,12,11,16,5.70
2011,04,12,11,17,5.70
2011,04,12,11,18,5.80
2011,04,12,11,19,5.80
2011,04,12,11,20,5.80
2011,04,12,11,21,5.80
2011,04,12,11,22,5.80
2011,04,12,11,23,5.80
2011,04,12,11,24,5.80
2011,04,12,11,25,5.80
2011,04,12,11,26,5.80
2011,04,12,11,27,5.80
2011,04,12,11,28,5.90
2011,04,12,11,29,5.80
2011,04,12,11,30,5.80
2011,04,12,11,31,5.90
2011,04,12,11,32,5.90
2011,04,12,11,33,5.90
2011,04,12,11,34,5.90
2011,04,12,11,35,6.00
2011,04,12,11,36,6.00
2011,04,12,11,37,6.10
2011,04,12,11,38,6.10
2011,04,12,11,39,6.20
2011,04,12,11,40,6.20
2011,04,12,11,41,6.20
2011,04,12,11,42,6.20
2011,04,12,11,43,6.20
2011,04,12,11,44,6.30
2011,04,12,11,45,6.30
2011,04,12,11,46,6.30
2011,04,12,11,47,6.30
2011,04,12,11,48,6.30
2011,04,12,11,49,6.30
2011,04,12,11,50,6.30
2011,04,12,11,51,6.30
2011,04,12,11,52,6.30
2011,04,12,11,53,6.30
2011,04,12,11,54,6.40
2011,04,12,11,55,6.40
2011,04,12,11,56,6.40
2011,04,12,11,57,6.40
2011,04,12,11,58,6.40
2011,04,12,11,59,6.40
2011,04,12,12,00,6.40
2011,04,12,12,01,6.40
2011,04,12,12,02,6.50
2011,04,12,12,03,6.50
2011,04,12,12,04,6.60
2011,04,12,12,05,6.60
2011,04,12,12,06,6.70
2011,04,12,12,07,6.70
2011,04,12,12,08,6.70
2011,04,12,12,09,6.70
2011,04,12,12,10,6.70
2011,04,12,12,11,6.70
2011,04,12,12,12,6.70
2011,04,12,12,13,6.80
2011,04,12,12,14,6.80
2011,04,12,12,15,6.80
2011,04,12,12,16,6.80
2011,04,12,12,17,6.90
2011,04,12,12,18,7.00
2011,04,12,12,19,7.10
2011,04,12,12,20,7.20
2011,04,12,12,21,7.20
2011,04,12,12,22,7.30
2011,04,12,12,23,7.30
2011,04,12,12,24,7.40
2011,04,12,12,25,7.40
2011,04,12,12,26,7.40
2011,04,12,12,27,7.30
2011,04,12,12,28,7.20
2011,04,12,12,29,7.20
2011,04,12,12,30,7.20
2011,04,12,12,31,7.20
2011,04,12,12,32,7.20
2011,04,12,12,33,7.20
2011,04,12,12,34,7.20
2011,04,12,12,35,7.30
2011,04,12,12,36,7.30
2011,04,12,12,37,7.40
2011,04,12,12,38,7.50
2011,04,12,12,39,7.50
2011,04,12,12,40,7.60
2011,04,12,12,41,7.60
2011,04,12,12,42,7.70
2011,04,12,12,43,7.80
2011,04,12,12,44,7.80
2011,04,12,12,45,7.90
2011,04,12,12,46,8.00
2011,04,12,12,47,8.10
2011,04,12,12,48,8.10
2011,04,12,12,49,8.20
2011,04,12,12,50,8.30
2011,04,12,12,51,8.40
2011,04,12,12,52,8.50
2011,04,12,12,53,8.50
2011,04,12,12,54,8.60
2011,04,12,12,55,8.60
2011,04,12,12,56,8.70
2011,04,12,12,57,8.70
2011,04,12,12,58,8.70
2011,04,12,12,59,8.70
2011,04,12,13,00,8.70
2011,04,12,13,01,8.70
2011,04,12,13,02,8.80
2011,04,12,13,03,8.80
2011,04,12,13,04,8.90
2011,04,12,13,05,8.90
2011,04,12,13,06,8.80
2011,04,12,13,07,8.80
2011,04,12,13,08,8.80
2011,04,12,13,09,8.80
2011,04,12,13,10,8.70
2011,04,12,13,11,8.70
2011,04,12,13,12,8.70
2011,04,12,13,13,8.70
2011,04,12,13,14,8.70
2011,04,12,13,15,8.70
2011,04,12,13,16,8.70
2011,04,12,13,17,8.70
2011,04,12,13,18,8.60
2011,04,12,13,19,8.50
2011,04,12,13,20,8.40
2011,04,12,13,21,8.40
2011,04,12,13,22,8.40
2011,04,12,13,23,8.40
2011,04,12,13,24,8.50
2011,04,12,13,25,8.50
2011,04,12,13,26,8.60
2011,04,12,13,27,8.60
2011,04,12,13,28,8.70
2011,04,12,13,29,8.70
2011,04,12,13,30,8.70
2011,04,12,13,31,8.70
2011,04,12,13,32,8.80
2011,04,12,13,33,8.80
2011,04,12,13,34,8.80
2011,04,12,13,35,8.80
2011,04,12,13,36,8.80
2011,04,12,13,37,8.90
2011,04,12,13,38,8.90
2011,04,12,13,39,9.00
2011,04,12,13,40,9.10
2011,04,12,13,41,9.10
2011,04,12,13,42,9.10
2011,04,12,13,43,9.10
2011,04,12,13,44,9.10
2011,04,12,13,45,9.20
2011,04,12,13,46,9.20
2011,04,12,13,47,9.20
2011,04,12,13,48,9.30
2011,04,12,13,49,9.40
2011,04,12,13,50,9.40
2011,04,12,13,51,9.50
2011,04,12,13,52,9.60
2011,04,12,13,53,9.60
2011,04,12,13,54,9.60
2011,04,12,13,55,9.60
2011,04,12,13,56,9.60
2011,04,12,13,57,9.60
2011,04,12,13,58,9.60
2011,04,12,13,59,9.60
2011,04,12,14,00,9.60
2011,04,12,14,01,9.50
2011,04,12,14,02,9.40
2011,04,12,14,03,9.30
2011,04,12,14,04,9.20
2011,04,12,14,05,9.20
2011,04,12,14,06,9.10
2011,04,12,14,07,9.00
2011,04,12,14,08,8.90
2011,04,12,14,09,8.80
2011,04,12,14,10,8.80
2011,04,12,14,11,8.80
2011,04,12,14,12,8.80
2011,04,12,14,13,8.80
2011,04,12,14,14,8.90
2011,04,12,14,15,9.00
2011,04,12,14,16,9.10
2011,04,12,14,17,9.20
2011,04,12,14,18,9.20
2011,04,12,14,19,9.30
2011,04,12,14,20,9.30
2011,04,12,14,21,9.30
2011,04,12,14,22,9.30
2011,04,12,14,23,9.30
2011,04,12,14,24,9.30
2011,04,12,14,25,9.30
2011,04,12,14,26,9.20
2011,04,12,14,27,9.20
2011,04,12,14,28,9.20
2011,04,12,14,29,9.20
2011,04,12,14,30,9.20
2011,04,12,14,31,9.20
2011,04,12,14,32,9.10
2011,04,12,14,33,9.10
2011,04,12,14,34,9.00
2011,04,12,14,35,9.00
2011,04,12,14,36,9.00
2011,04,12,14,37,9.00
2011,04,12,14,38,9.00
2011,04,12,14,39,9.00
2011,04,12,14,40,9.10
2011,04,12,14,41,9.00
2011,04,12,14,42,9.10
2011,04,12,14,43,9.10
2011,04,12,14,44,9.10
2011,04,12,14,45,9.20
2011,04,12,14,46,9.20
2011,04,12,14,47,9.30
2011,04,12,14,48,9.30
2011,04,12,14,49,9.40
2011,04,12,14,50,9.40
2011,04,12,14,51,9.50
2011,04,12,14,52,9.50
2011,04,12,14,53,9.40
2011,04,12,14,54,9.40
2011,04,12,14,55,9.40
2011,04,12,14,56,9.40
2011,04,12,14,57,9.50
2011,04,12,14,58,9.50
2011,04,12,14,59,9.40
2011,04,12,15,00,9.40
2011,04,12,15,01,9.50
2011,04,12,15,02,9.50
2011,04,12,15,03,9.50
2011,04,12,15,04,9.60
2011,04,12,15,05,9.60
2011,04,12,15,06,9.60
2011,04,12,15,07,9.60
2011,04,12,15,08,9.60
2011,04,12,15,09,9.70
2011,04,12,15,10,9.70
2011,04,12,15,11,9.60
2011,04,12,15,12,9.60
2011,04,12,15,13,9.60
2011,04,12,15,14,9.60
2011,04,12,15,15,9.60
2011,04,12,15,16,9.60
2011,04,12,15,17,9.60
2011,04,12,15,18,9.60
2011,04,12,15,19,9.60
2011,04,12,15,20,9.60
2011,04,12,15,21,9.70
2011,04,12,15,22,9.70
2011,04,12,15,23,9.70
2011,04,12,15,24,9.70
2011,04,12,15,25,9.60
2011,04,12,15,26,9.60
2011,04,12,15,27,9.60
2011,04,12,15,28,9.50
2011,04,12,15,29,9.50
2011,04,12,15,30,9.50
2011,04,12,15,31,9.50
2011,04,12,15,32,9.50
2011,04,12,15,33,9.50
2011,04,12,15,34,9.50
2011,04,12,15,35,9.60
2011,04,12,15,36,9.60
2011,04,12,15,37,9.60
2011,04,12,15,38,9.60
2011,04,12,15,39,9.60
2011,04,12,15,40,9.60
2011,04,12,15,41,9.60
2011,04,12,15,42,9.60
2011,04,12,15,43,9.60
2011,04,12,15,44,9.60
2011,04,12,15,45,9.60
2011,04,12,15,46,9.50
2011,04,12,15,47,9.50
2011,04,12,15,48,9.50
2011,04,12,15,49,9.50
2011,04,12,15,50,9.50
2011,04,12,15,51,9.50
2011,04,12,15,52,9.50
2011,04,12,15,53,9.50
2011,04,12,15,54,9.50
2011,04,12,15,55,9.50
2011,04,12,15,56,9.50
2011,04,12,15,57,9.50
2011,04,12,15,58,9.40
2011,04,12,15,59,9.40
2011,04,12,16,00,9.40
2011,04,12,16,01,9.50
2011,04,12,16,02,9.50
2011,04,12,16,03,9.50
2011,04,12,16,04,9.50
2011,04,12,16,05,9.60
2011,04,12,16,06,9.60
2011,04,12,16,07,9.60
2011,04,12,16,08,9.60
2011,04,12,16,09,9.60
2011,04,12,16,10,9.60
2011,04,12,16,11,9.60
2011,04,12,16,12,9.60
2011,04,12,16,13,9.50
2011,04,12,16,14,9.40
2011,04,12,16,15,9.40
2011,04,12,16,16,9.40
2011,04,12,16,17,9.30
2011,04,12,16,18,9.30
2011,04,12,16,19,9.30
2011,04,12,16,20,9.30
2011,04,12,16,21,9.30
2011,04,12,16,22,9.30
2011,04,12,16,23,9.20
2011,04,12,16,24,9.20
2011,04,12,16,25,9.20
2011,04,12,16,26,9.20
2011,04,12,16,27,9.20
2011,04,12,16,28,9.20
2011,04,12,16,29,9.20
2011,04,12,16,30,9.20
2011,04,12,16,31,9.10
2011,04,12,16,32,9.00
2011,04,12,16,33,9.00
2011,04,12,16,34,8.90
2011,04,12,16,35,8.90
2011,04,12,16,36,8.90
2011,04,12,16,37,9.00
2011,04,12,16,38,9.00
2011,04,12,16,39,9.00
2011,04,12,16,40,9.10
2011,04,12,16,41,9.10
2011,04,12,16,42,9.10
2011,04,12,16,43,9.10
2011,04,12,16,44,9.10
2011,04,12,16,45,9.10
2011,04,12,16,46,9.10
2011,04,12,16,47,9.00
2011,04,12,16,48,9.00
2011,04,12,16,49,9.00
2011,04,12,16,50,9.00
2011,04,12,16,51,8.90
2011,04,12,16,52,8.90
2011,04,12,16,53,9.00
2011,04,12,16,54,9.00
2011,04,12,16,55,9.00
2011,04,12,16,56,9.10
2011,04,12,16,57,9.10
2011,04,12,16,58,9.10
2011,04,12,16,59,9.20
2011,04,12,17,00,9.20
2011,04,12,17,01,9.20
2011,04,12,17,02,9.20
2011,04,12,17,03,9.20
2011,04,12,17,04,9.20
2011,04,12,17,05,9.20
2011,04,12,17,06,9.20
2011,04,12,17,07,9.20
2011,04,12,17,08,9.20
2011,04,12,17,09,9.20
2011,04,12,17,10,9.20
2011,04,12,17,11,9.20
2011,04,12,17,12,9.10
2011,04,12,17,13,9.10
2011,04,12,17,14,9.00
2011,04,12,17,15,9.00
2011,04,12,17,16,8.90
2011,04,12,17,17,8.90
2011,04,12,17,18,8.90
2011,04,12,17,19,8.90
2011,04,12,17,20,8.90
2011,04,12,17,21,8.90
2011,04,12,17,22,8.90
2011,04,12,17,23,8.90
2011,04,12,17,24,8.90
2011,04,12,17,25,8.90
2011,04,12,17,26,8.90
2011,04,12,17,27,8.90
2011,04,12,17,28,8.90
2011,04,12,17,29,8.90
2011,04,12,17,30,8.90
2011,04,12,17,31,8.90
2011,04,12,17,32,8.90
2011,04,12,17,33,8.90
2011,04,12,17,34,8.90
2011,04,12,17,35,8.90
2011,04,12,17,36,8.90
2011,04,12,17,37,8.90
2011,04,12,17,38,8.90
2011,04,12,17,39,8.90
2011,04,12,17,40,8.90
2011,04,12,17,41,8.90
2011,04,12,17,42,8.90
2011,04,12,17,43,8.90
2011,04,12,17,44,8.90
2011,04,12,17,45,8.90
2011,04,12,17,46,8.90
2011,04,12,17,47,8.90
2011,04,12,17,48,8.90
2011,04,12,17,49,8.90
2011,04,12,17,50,8.90
2011,04,12,17,51,9.00
2011,04,12,17,52,9.00
2011,04,12,17,53,9.00
2011,04,12,17,54,9.00
2011,04,12,17,55,9.00
2011,04,12,17,56,9.00
2011,04,12,17,57,9.00
2011,04,12,17,58,9.00
2011,04,12,17,59,9.00
2011,04,12,18,00,9.00
2011,04,12,18,01,9.00
2011,04,12,18,02,8.90
2011,04,12,18,03,8.90
2011,04,12,18,04,8.90
2011,04,12,18,05,8.90
2011,04,12,18,06,8.90